Leuchars, United Kingdom

11:26 PM GMT on November 24, 2017 (GMT +0000)
Leuchars Air Base

Weather History for EGQL - January, 2014

Change the Weather History Date:

Thursday, January 23, 2014

  Actual Average Record
Temperature  
Mean Temperature 37 °F -  
Max Temperature 43 °F 44 °F 55 °F (2008)
Min Temperature 31 °F 33 °F 28 °F (2005)
Degree Days  
Heating Degree Days 28    
Moisture  
Dew Point 33 °F    
Average Humidity 76    
Maximum Humidity 93    
Minimum Humidity 46    
Precipitation  
Precipitation 0.01 in - - ()
Sea Level Pressure  
Sea Level Pressure 29.63 in    
Wind  
Wind Speed 10 mph ()    
Max Wind Speed 20 mph    
Max Gust Speed -    
Visibility 9.9 miles    
Events Rain    
Averages and records for this station are not official NWS values.
T = Trace of Precipitation, MM = Missing Value Source: Averaged Metar Reports

Daily Weather History Graph

Daily Weather History Graph

Search for Another Location

Airport or City:

Trip Planner

Search our weather history database for the weather conditions in past years. The results will help you decide how hot, cold, wet, or windy it might be!

Date:

Astronomy

Jan. 23, 2014 Rise Set
Actual Time 8:23 AM GMT 4:23 PM GMT
Civil Twilight 7:40 AM GMT 5:06 PM GMT
Nautical Twilight 6:53 AM GMT 5:53 PM GMT
Astronomical Twilight 6:09 AM GMT 6:38 PM GMT
Moon 12:00 AM GMT (1/23) 10:25 AM GMT (1/23)
Length of Visible Light 9h 26m
Length of Day
7h 59m
Waning Gibbous, 57% of the Moon is Illuminated
Jan 23
Waning Gibbous
Jan 24
Last Quarter
Jan 30
New
Feb 6
First Quarter
Feb 14
Full

Hourly Weather History & Observations

Time (GMT) Temp. Windchill Dew Point Humidity Pressure Visibility Wind Dir Wind Speed Gust Speed Precip Events Conditions
12:00 AM 40 °F - 37 °F 86% 29.63 in 19 mi WSW 8.1 mph - -   Scattered Clouds
12:50 AM 39.2 °F 35.9 °F 37.4 °F 93% 29.62 in - West 4.6 mph - N/A   Clear
1:00 AM 40 °F - 37 °F 83% 29.63 in 25 mi West 4.6 mph - -   Clear
1:50 AM 41.0 °F 32.5 °F 37.4 °F 87% 29.62 in - WSW 17.3 mph - N/A   Clear
2:00 AM 41 °F - 37 °F 81% 29.63 in 19 mi WSW 17.3 mph - -   Scattered Clouds
2:50 AM 39.2 °F 33.6 °F 37.4 °F 93% 29.59 in 6.2 mi SW 8.1 mph - N/A   Mostly Cloudy
3:00 AM 40 °F - 37 °F 84% 29.62 in 19 mi SW 8.1 mph - -   Scattered Clouds
3:50 AM 41.0 °F 33.5 °F 37.4 °F 87% 29.56 in 6.2 mi SW 13.8 mph - N/A   Mostly Cloudy
4:00 AM 41 °F - 38 °F 83% 29.57 in 16 mi SW 13.8 mph - -   Scattered Clouds
4:50 AM 41.0 °F 34.3 °F 37.4 °F 87% 29.53 in 6.2 mi SW 11.5 mph - N/A   Mostly Cloudy
5:00 AM 42 °F - 38 °F 79% 29.55 in 19 mi SW 11.5 mph - -   Overcast
5:50 AM 42.8 °F 36.2 °F 35.6 °F 76% 29.50 in 6.2 mi SSW 12.7 mph - N/A Rain Light Rain
6:00 AM 42 °F - 36 °F 72% 29.52 in 12 mi SSW 12.7 mph - - Rain Light Rain
6:50 AM 41.0 °F 31.9 °F 37.4 °F 87% 29.47 in 6.2 mi SW 19.6 mph - N/A Rain Light Rain
7:00 AM 41 °F - 37 °F 80% 29.50 in 12 mi SW 19.6 mph - - Rain Light Rain
7:50 AM 41.0 °F 34.7 °F 37.4 °F 87% 29.47 in 6.2 mi WSW 10.4 mph - N/A   Mostly Cloudy
8:00 AM 40 °F - 38 °F 88% 29.50 in 19 mi WSW 10.4 mph - - Rain Light Rain
8:50 AM 41.0 °F 32.8 °F 35.6 °F 81% 29.50 in 6.2 mi West 16.1 mph - N/A   Overcast
9:00 AM 40 °F - 35 °F 76% 29.53 in 37 mi West 16.1 mph - -   Partly Cloudy
9:50 AM 39.2 °F 31.6 °F 33.8 °F 81% 29.53 in 6.2 mi West 12.7 mph - N/A   Mostly Cloudy
10:00 AM 40 °F - 34 °F 72% 29.54 in 37 mi West 12.7 mph - -   Scattered Clouds
10:50 AM 39.2 °F 31.6 °F 33.8 °F 81% 29.56 in 6.2 mi West 12.7 mph - N/A   Mostly Cloudy
11:00 AM 39 °F - 33 °F 72% 29.57 in 34 mi West 12.7 mph - -   Scattered Clouds
11:50 AM 41.0 °F 32.5 °F 32.0 °F 70% 29.56 in 6.2 mi West 17.3 mph - N/A   Mostly Cloudy
12:00 PM 41 °F - 32 °F 60% 29.58 in 31 mi West 17.3 mph - -   Partly Cloudy
12:50 PM 42.8 °F 34.8 °F 32.0 °F 66% 29.56 in 6.2 mi West 17.3 mph - N/A   Mostly Cloudy
1:00 PM 43 °F - 32 °F 54% 29.59 in 31 mi West 17.3 mph - -   Scattered Clouds
1:50 PM 42.8 °F 34.5 °F 32.0 °F 66% 29.59 in 6.2 mi West 18.4 mph - N/A   Scattered Clouds
2:00 PM 43 °F - 31 °F 52% 29.62 in 28 mi West 18.4 mph - -   Scattered Clouds
2:50 PM 42.8 °F 35.4 °F 28.4 °F 57% 29.62 in 6.2 mi West 15.0 mph - N/A   Partly Cloudy
3:00 PM 43 °F - 29 °F 46% 29.65 in 44 mi West 15.0 mph - -   Scattered Clouds
3:50 PM 41.0 °F 34.3 °F 30.2 °F 65% 29.65 in 6.2 mi West 11.5 mph - N/A   Partly Cloudy
4:00 PM 40 °F - 30 °F 57% 29.67 in 44 mi West 11.5 mph - -   Scattered Clouds
4:50 PM 39.2 °F 32.0 °F 30.2 °F 70% 29.68 in 6.2 mi WNW 11.5 mph - N/A   Partly Cloudy
5:00 PM 38 °F - 29 °F 61% 29.71 in 44 mi WNW 11.5 mph - -   Scattered Clouds
5:50 PM 33.8 °F 27.0 °F 28.4 °F 81% 29.74 in - West 8.1 mph - N/A   Clear
6:00 PM 34 °F - 29 °F 75% 29.74 in 44 mi West 8.1 mph - -   Scattered Clouds
6:50 PM 35.6 °F - 28.4 °F 75% 29.74 in - West 2.3 mph - N/A   Clear
7:00 PM 35 °F - 29 °F 71% 29.77 in 44 mi West 2.3 mph - -   Scattered Clouds
7:50 PM 32.0 °F 27.5 °F 28.4 °F 87% 29.77 in - SW 4.6 mph - N/A   Clear
8:00 PM 33 °F - 28 °F 74% 29.79 in 37 mi SW 4.6 mph - -   Clear
8:50 PM 33.8 °F 26.4 °F 28.4 °F 81% 29.80 in - West 9.2 mph - N/A   Clear
9:00 PM 33 °F - 28 °F 75% 29.80 in 31 mi West 9.2 mph - -   Clear
9:50 PM 32.0 °F 24.2 °F 28.4 °F 87% 29.80 in - WSW 9.2 mph - N/A   Clear
10:00 PM 31 °F - 28 °F 81% 29.82 in 31 mi WSW 9.2 mph - -   Clear
10:50 PM 33.8 °F 27.0 °F 28.4 °F 81% 29.80 in - West 8.1 mph - N/A   Clear
11:00 PM 33 °F - 28 °F 73% 29.82 in 31 mi West 8.1 mph - -   Clear
11:50 PM 32.0 °F 28.7 °F 26.6 °F 80% 29.80 in - WSW 3.5 mph - N/A   Clear